User: anonymous   Login
Location: *
(55.6049°S, 142.1985°W)
Time: 16:06:55
(UTC+00:00)
Language:

IRIDIUM 104 - Orbit

View from above orbital plane
View from above orbital plane
View from above satellite
View from above satellite

Ground track
Ground track

The orbit data is extracted from the following two-line orbital elements,

1 41922U 17003F   21210.78679775  .00000095  00000-0  26812-4 0  9998
2 41922  86.3975 113.7308 0002419  78.6843 281.4624 14.34216755237651
Epoch (UTC): 29 July 2021 18:52:59
Eccentricity: 0.0002419
inclination: 86.3975°
perigee height: 776 km
apogee height: 779 km
right ascension of ascending node: 113.7308°
argument of perigee: 78.6843°
revolutions per day: 14.34216755
mean anomaly at epoch: 281.4624°
orbit number at epoch: 23765

The dashed part of the orbit path shows where the satellite is in the earth's shadow,  

DLR